TimePST,TemperatureF,Dew PointF,Humidity,Sea Level PressureIn,VisibilityMPH,Wind Direction,Wind SpeedMPH,Gust SpeedMPH,PrecipitationIn,Events,Conditions,WindDirDegrees,DateUTC
12:52 AM,50.0,27.0,41,30.05,-9999.0,NE,10.4,-,N/A,,Unknown,50,2013-01-09 08:52:00
1:52 AM,50.0,27.0,41,30.04,-9999.0,NE,13.8,-,N/A,,Unknown,50,2013-01-09 09:52:00
2:52 AM,48.9,26.1,41,30.05,-9999.0,East,5.8,-,N/A,,Unknown,80,2013-01-09 10:52:00
3:52 AM,46.9,27.0,46,30.05,-9999.0,Calm,Calm,-,N/A,,Unknown,0,2013-01-09 11:52:00
4:52 AM,42.1,27.0,55,30.06,-9999.0,Calm,Calm,-,N/A,,Unknown,0,2013-01-09 12:52:00
5:52 AM,43.0,28.0,56,30.09,-9999.0,NNW,3.5,-,N/A,,Unknown,330,2013-01-09 13:52:00
6:52 AM,39.9,27.0,60,30.12,-9999.0,Calm,Calm,-,N/A,,Unknown,0,2013-01-09 14:52:00
7:52 AM,45.0,28.9,53,30.12,-9999.0,Calm,Calm,-,N/A,,Unknown,0,2013-01-09 15:52:00
8:52 AM,51.1,35.1,54,30.12,-9999.0,Calm,Calm,-,N/A,,Unknown,0,2013-01-09 16:52:00
9:52 AM,64.0,28.0,26,30.09,-9999.0,ENE,15.0,-,N/A,,Unknown,70,2013-01-09 17:52:00
10:52 AM,66.0,27.0,23,30.06,-9999.0,ENE,13.8,-,N/A,,Unknown,70,2013-01-09 18:52:00
11:52 AM,68.0,26.1,21,30.01,-9999.0,East,8.1,-,N/A,,Unknown,80,2013-01-09 19:52:00
12:52 PM,70.0,27.0,20,29.99,-9999.0,Variable,3.5,-,N/A,,Unknown,0,2013-01-09 20:52:00
1:52 PM,69.1,30.9,24,29.96,-9999.0,SW,11.5,-,N/A,,Unknown,220,2013-01-09 21:52:00
2:52 PM,66.0,39.0,37,29.97,-9999.0,SW,12.7,-,N/A,,Unknown,220,2013-01-09 22:52:00
3:52 PM,62.1,42.1,48,29.97,-9999.0,SSW,15.0,-,N/A,,Unknown,210,2013-01-09 23:52:00
4:52 PM,55.0,42.1,62,29.99,-9999.0,SW,9.2,-,N/A,,Unknown,220,2013-01-10 00:52:00
5:52 PM,54.0,43.0,66,30.00,-9999.0,Calm,Calm,-,N/A,,Unknown,0,2013-01-10 01:52:00
6:52 PM,43.0,37.0,80,30.01,-9999.0,NNE,4.6,-,N/A,,Unknown,30,2013-01-10 02:52:00
7:52 PM,46.0,39.9,79,30.00,-9999.0,Calm,Calm,-,N/A,,Unknown,0,2013-01-10 03:52:00
8:52 PM,41.0,36.0,82,29.99,-9999.0,NE,5.8,-,N/A,,Unknown,40,2013-01-10 04:52:00
9:52 PM,39.0,34.0,82,29.96,-9999.0,East,4.6,-,N/A,,Unknown,80,2013-01-10 05:52:00
10:52 PM,37.0,33.1,86,29.96,-9999.0,ENE,5.8,-,N/A,,Unknown,60,2013-01-10 06:52:00
11:52 PM,35.1,30.9,85,29.94,-9999.0,NE,6.9,-,N/A,,Unknown,50,2013-01-10 07:52:00